Location: Bekesbourne
(51.2500°N, 1.1333°E)
Time: 13:16:06
(UTC+00:00)

Daily predictions for brighter satellites

Satellite Brightness Start Highest point End
(mag) Time Altitude Azimuth Time Altitude Azimuth Time Altitude Azimuth
Meteor 1-22 Rocket 4.4 20:48:09 10° N 20:53:44 66° ENE 20:59:30 10° SSE
Cosmos 2315 Rocket 4.5 20:49:07 10° N 20:55:19 50° ENE 21:01:30 10° SSE
Cosmos 1758 4.1 20:53:24 10° N 20:57:04 37° ENE 21:00:43 10° SE
Cosmos 1933 Rocket 4.1 20:56:53 10° NNW 21:01:16 60° W 21:05:38 10° S
Cosmos 1954 Rocket 4.0 20:58:43 10° SSW 21:04:01 84° ESE 21:09:19 10° NNE
Resurs 01 Rocket 4.2 21:01:22 10° SW 21:04:12 17° W 21:07:01 10° NW
CZ-4C R/B 3.9 21:00:31 10° N 21:04:38 65° WNW 21:08:43 10° SSW
Landsat 4 3.5 21:01:21 10° SSE 21:04:46 73° ENE 21:08:13 10° N
COSMOS 2406 3.5 20:59:36 10° SW 21:05:22 76° WNW 21:11:09 10° NNE
Cosmos 1980 Rocket 4.0 21:00:54 10° NW 21:05:28 25° WSW 21:10:01 10° SSW
Cosmos 2322 Rocket 2.4 21:01:00 10° NNW 21:06:41 68° ENE 21:12:21 10° SE
Cosmos 1356 Rocket 4.4 21:06:40 10° SSE 21:10:22 31° E 21:14:05 10° NNE
SeaSat 1 3.1 21:08:45 10° S 21:13:30 49° WSW 21:18:17 10° NW
Meteor 1-13 Rocket 4.3 21:08:04 10° S 21:13:52 85° E 21:19:34 10° NNE
Cosmos 676 Rocket 4.1 21:08:49 10° SSW 21:14:09 84° ESE 21:19:30 10° NNE
Cosmos 2278 4.2 21:11:11 10° NW 21:16:48 59° WSW 21:22:23 10° S
Cosmos 1707 3.5 21:13:31 10° SSW 21:17:01 49° WNW 21:20:34 10° N
MOS 1 Rocket 3.7 21:15:08 10° S 21:20:33 81° WSW 21:25:53 10° NNW
USA 234 3.2 21:16:51 10° ENE 21:23:24 69° SE 21:29:54 10° SW
Cosmos 1455 3.9 21:24:17 10° NNE 21:26:50 18° ENE 21:29:22 10° ESE
Cosmos 1400 Rocket 2.7 21:23:11 10° S 21:27:04 78° E 21:30:56 10° NNE
COSMOS 2428 4.2 21:22:20 10° NNW 21:27:13 28° NE 21:32:06 10° E
SL-4 R/B 1.9 21:23:30 10° W 21:27:22 88° N 21:31:30 10° E
Meteor 2-10 Rocket 3.7 21:25:01 10° NNW 21:30:43 86° W 21:36:08 10° S
Cosmos 2219 Rocket 2.8 21:28:27 10° NNW 21:33:59 50° NE 21:39:27 10° SE
Landsat 5 3.7 21:30:09 10° NNE 21:34:01 49° E 21:38:00 10° S
Cosmos 841 Rocket 3.9 21:30:55 10° NNW 21:36:06 59° WSW 21:41:15 10° S
Cosmos 1707 Rocket 3.8 21:31:52 10° S 21:36:12 56° E 21:40:34 10° NNE
ERS-1 Rocket 4.1 21:33:36 10° SSW 21:38:19 40° W 21:43:04 10° NNW
ATLAS CENTAUR R/B 1.8 21:35:40 10° S 21:38:45 30° ESE 21:41:55 10° ENE
Cosmos 1315 Rocket 4.1 21:39:54 13° SE 21:42:32 25° E 21:45:50 10° NE
SJ 16-02 2.3 21:39:28 13° SSE 21:42:42 30° ESE 21:46:29 10° NE
ARIANE 5 R/B 3.6 21:39:26 11° SE 21:43:04 34° ENE 21:47:00 10° N
Meteor 1-4 Rocket 3.4 21:41:42 15° SE 21:43:23 25° E 21:45:56 10° NE
SL-27 R/B 2.6 21:41:51 15° SSE 21:43:45 34° ESE 21:46:21 10° NE
Cosmos 1953 3.3 21:41:09 10° N 21:44:40 33° ENE 21:47:31 14° SE
Okean 3 3.9 21:41:42 13° SSE 21:45:12 45° E 21:49:12 10° NNE
Spot 2 Rocket 4.3 21:41:00 10° S 21:45:51 46° W 21:50:46 10° NNW
Aureole 3 3.7 21:49:38 14° S 21:52:53 56° E 21:57:35 10° NNE
Cosmos 1300 3.0 21:50:24 10° NNW 21:53:54 54° W 21:57:03 12° S
Cosmos 1733 Rocket 3.2 21:51:10 10° NNW 21:55:35 73° W 21:59:30 13° S
Spot 1 4.2 21:51:26 10° NNE 21:55:55 85° ESE 22:00:38 10° SSW
Meteor 1-23 Rocket 4.5 21:51:39 10° SSW 21:57:19 74° WNW 22:03:05 10° N
Cosmos 2360 Rocket 2.4 21:52:08 10° NNW 21:57:48 71° WSW 22:02:32 15° SSE
Cosmos 1655 Rocket 4.2 21:52:53 10° SSW 21:59:17 80° W 22:05:44 10° N
Cosmos 839 Rocket 4.2 21:54:09 10° NW 22:01:22 90° W 22:06:44 15° SE
GP-B 4.0 21:57:23 10° NNE 22:01:28 35° E 22:04:27 16° SE
H-2A R/B 3.8 21:59:14 12° ESE 22:02:36 31° ENE 22:06:23 10° N
ATLAS 2AS CENTAUR R/B 2.8 21:59:15 10° NW 22:06:05 68° SW 22:11:32 16° SSE
Cosmos 2333 Rocket 2.4 22:00:44 10° NW 22:06:27 67° WSW 22:11:07 16° SSE
SL-16 R/B 3.4 22:01:37 10° NW 22:06:38 33° WSW 22:11:37 10° SSW
Cosmos 1908 Rocket 3.9 22:03:43 10° N 22:08:01 54° ENE 22:11:05 18° SSE
SL-14 R/B 3.8 22:05:20 10° SSW 22:09:03 55° WNW 22:12:48 10° N
Ariane Rocket 4.5 22:06:09 10° SSW 22:10:38 31° W 22:15:09 10° NNW
Cosmos 2228 Rocket 3.6 22:06:18 10° SSW 22:10:48 63° WNW 22:15:22 10° N
MetOp-A 4.5 22:07:04 13° S 22:11:42 58° W 22:16:54 10° NNW
RESURS DK-1 3.7 22:08:27 10° NW 22:11:58 28° WSW 22:14:58 13° SSW
BREEZE-M DEB (TANK) 3.0 22:09:54 10° WSW 22:12:32 63° SSE 22:19:01 10° E
Cosmos 2082 Rocket 4.5 22:08:55 10° W 22:13:47 28° NW 22:18:38 10° NNE
Okean 1-7 3.1 22:13:21 17° S 22:16:34 61° E 22:20:51 10° NNE
Cosmos 1346 Rocket 3.9 22:14:40 10° NNW 22:18:16 37° W 22:21:26 12° SSW
BREEZE-M DEB (TANK) 2.3 22:17:13 10° W 22:22:48 70° N 22:25:05 10° ENE
Cosmos 1833 4.2 22:17:18 10° SSW 22:22:54 72° ESE 22:28:32 10° NNE
BlueWalker 3 4.0 22:24:27 12° ESE 22:24:27 12° ESE 22:25:01 10° ESE
Cosmos 1408 4.2 22:22:39 13° ESE 22:23:29 14° E 22:25:12 10° NE
Cosmos 1850 Rocket 4.3 22:18:23 10° SW 22:23:35 68° WNW 22:28:47 10° NNE
Terra 4.0 22:20:27 10° SW 22:23:45 19° W 22:27:05 10° NW
Cosmos 1242 Rocket 3.0 22:23:20 24° SE 22:24:10 29° E 22:26:39 10° NNE
MINOTAUR 4 R/B 4.3 22:22:21 10° NNE 22:25:06 36° E 22:26:11 26° SE
Cosmos 1570 Rocket 4.2 22:25:08 10° NNW 22:30:30 70° ENE 22:34:28 18° SE
Cosmos 1300 Rocket 4.3 22:27:04 10° N 22:31:10 42° ENE 22:33:56 19° SE
Cosmos 2237 Rocket 3.6 22:26:03 10° NNW 22:31:10 33° NE 22:36:14 10° ESE
Cosmos 2322 3.8 22:26:04 10° NNW 22:31:47 74° ENE 22:36:10 17° SE
H-2A R/B 4.4 22:33:16 10° E 22:33:30 10° E 22:33:45 10° E
USA 281 3.3 22:28:55 17° SSE 22:34:06 76° WSW 22:40:44 10° NNW
ALOS 2 3.5 22:32:43 16° SE 22:35:47 40° ENE 22:39:54 10° N
CZ-2C R/B 3.6 22:35:53 10° NNE 22:40:20 83° ESE 22:43:36 18° SSW
CZ-4C R/B 3.4 22:42:24 15° SE 22:43:38 16° ESE 22:46:51 10° ENE
Cosmos 968 Rocket 3.9 22:40:29 10° SW 22:45:36 64° WNW 22:50:47 10° NNE
Cosmos 2322 Rocket 3.8 22:45:45 10° NW 22:50:14 25° WSW 22:54:24 11° SSW
Cosmos 1703 Rocket 3.6 22:48:43 20° S 22:51:48 89° E 22:56:17 10° N
Spot 4 3.9 22:49:10 22° SSE 22:52:18 78° ENE 22:57:09 10° NNW
NOSS 0 Rocket 4.2 22:47:18 10° NNW 22:53:33 68° NE 22:58:44 15° SE
Cosmos 158 Rocket 4.1 22:49:15 10° NNW 22:54:38 77° ENE 22:58:13 21° SSE
Okean 2 3.9 22:54:53 16° SSW 22:57:57 52° WNW 23:01:55 10° N
EXPRESS MD2 1.7 22:57:16 10° W 22:59:27 61° S 22:59:34 59° SSE
PSLV R/B 3.8 22:55:51 10° NNE 22:59:53 83° WNW 23:02:28 21° SSW
Cosmos 2242 Rocket 4.2 22:57:30 23° SSE 22:59:58 45° E 23:04:20 10° NNE
Cosmos 2297 Rocket 3.6 22:57:55 17° SE 23:00:28 23° ESE 23:04:49 10° NE
Cosmos 1455 3.0 22:58:09 10° NNW 23:01:25 37° W 23:03:18 20° SSW
Cosmos 2208 Rocket 4.0 22:57:18 10° NNW 23:02:33 88° WSW 23:05:55 22° SSE
SL-4 R/B 1.9 23:02:11 10° W 23:06:12 82° SSW 23:10:27 10° ESE
USA 234 3.8 22:59:57 10° ENE 23:06:25 64° NNW 23:12:52 10° W
NOSS 5 (C) 4.2 23:03:16 10° NW 23:06:27 68° SW 23:07:42 33° SSE
Cosmos 1932 4.4 23:00:19 10° SW 23:06:40 88° SE 23:12:58 10° NE
Cosmos 773 Rocket 4.4 23:01:36 10° NNW 23:06:41 56° ENE 23:10:31 17° SE
SAR-Lupe-3 4.5 23:06:34 29° SSE 23:08:17 84° WSW 23:11:54 10° NNW
COSMOS 2428 2.7 23:06:20 10° NNW 23:12:01 73° WSW 23:15:44 22° SSE
Cosmos 2098 Rocket 4.4 23:07:15 10° N 23:13:44 58° ENE 23:18:27 19° SSE
CENTAUR R/B 4.3 23:12:51 10° ESE 23:15:04 12° E 23:17:26 10° ENE
COSMOS 2455 3.4 23:12:16 22° S 23:15:38 41° ESE 23:21:15 10° NE
Meteor 1-4 Rocket 4.5 23:14:02 10° WSW 23:16:14 19° WNW 23:18:30 10° NNW
ATLAS CENTAUR R/B 2.6 23:13:01 10° WSW 23:16:19 36° NW 23:19:44 10° NNE
GENESIS II 4.1 23:14:53 28° SSW 23:16:30 55° SE 23:20:05 10° NE
Cosmos 2219 Rocket 3.2 23:12:41 10° NW 23:17:46 35° WSW 23:21:08 19° SSW
Cosmos 1315 Rocket 4.2 23:15:10 11° SW 23:18:33 34° WNW 23:22:14 10° N
ARIANE 5 R/B 3.8 23:16:54 17° SSW 23:19:29 31° W 23:23:22 10° NNW
Cosmos 1953 4.0 23:17:15 10° NW 23:20:21 23° W 23:22:38 14° SW
SJ 16-02 2.7 23:16:59 10° SW 23:20:59 36° WNW 23:25:00 10° N
PSLV R/B 3.9 23:26:59 10° NNE 23:31:08 49° E 23:33:07 27° SSE
Cosmos 304 Rocket 4.3 23:31:07 25° SSE 23:33:27 45° ESE 23:37:59 10° NE
Cosmos 1745 Rocket 4.3 23:30:01 17° SSW 23:34:55 67° WNW 23:41:17 10° N
H-2A R/B 3.6 23:35:13 21° SSW 23:37:28 34° W 23:41:24 10° NNW
Okean 1 Rocket 4.3 23:36:09 10° N 23:40:08 34° ENE 23:43:06 16° SE
Cosmos 2360 Rocket 4.3 23:38:17 10° WNW 23:40:44 13° W 23:43:12 10° WSW
Cosmos 1486 Rocket 3.9 23:41:55 23° SSW 23:45:11 79° ESE 23:50:25 10° NNE
Cosmos 2181 Rocket 4.0 23:39:07 10° N 23:45:22 77° E 23:49:34 22° SSE
Cosmos 1825 3.3 23:47:12 22° SE 23:48:27 28° E 23:51:26 10° NNE
Cosmos 2333 Rocket 4.4 23:47:26 10° WNW 23:49:38 12° W 23:51:51 10° WSW
ATLAS 2AS CENTAUR R/B 4.4 23:51:52 10° WNW 23:55:43 16° WSW 23:58:56 11° SW
Cosmos 1408 3.4 23:54:41 22° WSW 23:55:57 32° WNW 23:58:42 10° N
